Flag for U.S.A. Weather past 2 weeks in Mason, Ohio, U.S.A.

Now
31 °F

Overcast.


Feels Like: 23 °F
Forecast: 20 / 38 °F
Wind: 9 mph from Northwest

Location: Butler County Regional Airport

Current Time: Mar 27, 2015 at 8:43:52 PM

Latest Report: Mar 27, 2015 at 7:53 PM


Visibility: 10 mi

Pressure: 30.10 "Hg

Humidity: 54%

Dew point: 16 °F

Location of MasonLocation

Historic Weather in Mason — Graph

°F

Mason temperature yesterday

Maximum temperature yesterday: 50 °F (at 1:53 AM)
Minimum temperature yesterday: 38 °F (at 10:53 PM)
Average temperature yesterday: 45 °F

Past Weeks' High & Low Weather Summary

 TemperatureHumidityPressure
High76 °F (Mar 16, 4:53 PM)100% (Mar 14, 1:53 AM)30.43 "Hg (Mar 14, 1:53 AM)
Low24 °F (Mar 18, 7:53 AM)26% (Mar 18, 4:53 PM)29.84 "Hg (Mar 17, 4:53 AM)
Average46 °F66%30.13 "Hg
* Reported Mar 12 6:53 PM — Mar 27 6:53 PM, Mason, Weather by CustomWeather, © 2015

Note: Actual official high and low records may vary slightly from our data, if they occured in-between our weather recording intervals... More about our weather records

Advertising

Mason weather history for previous 24 hours

 ConditionsComfort  
Time TempWeatherWind HumidityBarometerVisibility
6:53 PM
Fri, Mar 27
31 °FOvercast.13 mph52%30.08 "Hg10 mi
5:53 PM32 °FOvercast.13 mph52%30.08 "Hg10 mi
4:53 PM33 °FOvercast.15 mph52%30.06 "Hg10 mi
3:53 PM35 °FOvercast.14 mph50%30.05 "Hg10 mi
2:53 PM34 °FMostly cloudy.16 mph56%30.05 "Hg10 mi
1:53 PM35 °FMostly cloudy.12 mph59%30.06 "Hg10 mi
12:53 PM34 °FMostly cloudy.9 mph64%30.06 "Hg10 mi
11:53 AM35 °FOvercast.10 mph64%30.04 "Hg10 mi
10:53 AM35 °FMostly cloudy.14 mph64%30.03 "Hg10 mi
9:53 AM36 °FPassing clouds.10 mph64%30.03 "Hg10 mi
8:53 AM33 °FSunny.8 mph72%30.03 "Hg10 mi
7:53 AM29 °FClear.No wind85%30.03 "Hg10 mi
6:53 AM28 °FClear.5 mph85%30.01 "Hg10 mi
5:53 AM27 °FPassing clouds.5 mph89%29.99 "Hg10 mi
4:53 AM30 °FClear.3 mph85%29.99 "Hg10 mi
3:53 AM32 °FClear.5 mph73%29.99 "Hg10 mi
2:53 AM36 °FPassing clouds.8 mph62%29.99 "Hg10 mi
1:53 AM38 °FOvercast.8 mph65%30.01 "Hg10 mi
12:53 AM39 °FOvercast.9 mph62%30.01 "Hg10 mi
11:53 PM
Thu, Mar 26
40 °FOvercast.6 mph80%30.01 "Hg10 mi
10:53 PM38 °FPassing clouds.3 mph86%29.98 "Hg10 mi
9:53 PM41 °FOvercast.3 mph76%29.99 "Hg10 mi
8:53 PM40 °FPartly sunny.6 mph77%29.97 "Hg10 mi
Weather by CustomWeather, © 2015

See weather overviewHow to use our weather pages